Location: Devore Heights
(34.2372°N, 117.4156°W)
Time: 08:57:22
(UTC+00:00)

Altair - Pass Details

Date: 16 September 2024
Orbit: 1501 x 1682 km, 47.2° (Epoch: 07 October)

Event Time Altitude Azimuth Distance (km) Brightness Sun altitude
Rises 11:06:04 0° 260° (W) 4,851 - -30.2°
Reaches altitude 10° 11:09:21 10° 266° (W) 3,886 - -29.6°
Exits shadow 11:15:20 37° 292° (WNW) 2,406 8.1 -28.5°
Maximum altitude 11:18:59 50° 340° (NNW) 2,057 8.1 -27.8°
Drops below altitude 10° 11:28:47 10° 54° (NE) 3,947 10.6 -26.0°
Sets 11:32:09 0° 60° (ENE) 4,931 11.5 -25.3°
